San Diego International Airport
KSAN : now visible

Airfield :











YOU CAN JOIN US ON...

 
LOGIN :

Register | Disclaimer

   EN    FR    IT 

 









Legend :    VFR   Marginal VFR   IFR   Intensive IFR   Very Intensive IFR
Visi :
Ceiling :
>= 8 km
>= 3000ft
5 to 8 km
1000 to 3000 ft
1500m to 5 km
500 to 1000 ft
800 to 1500m
200 to 500 ft
< 800m
< 200 ft
Symbols :   Thunderstorms  Fog  Heavy snow  Heavy precipitations  Wind > 20 kt







- Airport Elevation : 17 ft
- IATA code : SAN


KSAN - San Diego International

CURRENT METAR :
  • 212151Z 28008KT 10SM FEW014 24/18 A2984 RMK AO2 SLP104 T02440178

EXPIRED METARs :
  • 212051Z 29008KT 10SM FEW014 24/17 A2985 RMK AO2 SLP106 T02440172 58020
  • 211951Z 30009KT 10SM FEW014 24/17 A2987 RMK AO2 SLP113 T02440172

TAF KSAN
Valid from the 21 at 21:00 until the 23 at 00:00 UTC


212034Z 2121/2224 29009KT P6SM SKC
FM220200 VRB04KT P6SM SCT010
FM221200 VRB04KT 5SM HZ BKN010
FM221700 VRB04KT P6SM SCT012
FM221900 27007KT P6SM SKC
No reported NOTAMs for that airfield.



MET'MAP, your aeronautical weather chart ! - Copyright ORBIFLY December 2007 - Disclaimer

ORBIFLY MET'MAP TEAM :

Programming & Development : Alexandra Zaïnal
Concept & Development : Baudouin d'Aumeries
Co-Development & Prog : Marc-Olivier Méhu
Technical & hardware support : Manuel Goepfert

Contact : metmap@orbifly.com




SOURCES & CREDITS :

   NOAA       Earth
Advisory